[[{"header":{"parameterUnit":"m.s-1","parameterCategory":1,"la1":30.2992,"la2":30.254,"lo1":-89.0895,"lo2":-89.0443,"dy":0.0025,"dx":0.0025,"nx":19,"ny":19,"refTime":"2026-04-12T03:00:00:Z","depth":0,"parameterNumber":2,"parameterNumberName":"U-component_of_WINDS"},"data":[0,0,0,-0.6368,-0.6368,-0.6345,-0.6345,-0.6322,-0.6322,0,0,0,0,0,0,0,0,0,0,0,-0.6378,-0.6378,-0.6368,-0.6367,-0.6345,-0.6345,-0.6322,-0.6322,0,0,0,0,0,0,0,0,0,0,0,-0.6378,-0.6378,-0.6378,-0.6367,-0.6345,-0.6345,-0.6322,-0.6337,0,0,0,0,0,0,0,0,0,0,-0.6358,-0.637,-0.6378,-0.6378,-0.6367,-0.6345,-0.6345,-0.6338,-0.6336,-0.6335,0,-0.6334,0,-0.6328,-0.6321,-0.632,0,0,0,-0.6365,-0.6371,-0.6363,-0.6378,-0.6367,-0.6345,-0.6354,-0.6337,-0.6335,-0.6333,-0.6334,-0.6333,-0.6327,-0.632,-0.632,-0.6321,-0.6321,0,0,-0.6366,-0.6375,-0.6364,-0.6362,-0.6365,-0.6355,-0.6354,-0.6335,-0.6337,-0.6333,-0.6332,-0.6327,-0.632,-0.632,-0.6321,-0.6321,0,0,0,-0.6372,-0.6377,-0.6368,-0.6363,-0.6358,-0.6354,-0.6353,-0.6338,-0.6334,-0.6332,-0.6327,-0.632,-0.632,-0.6321,-0.6321,-0.6337,0,0,0,-0.6372,-0.638,-0.6368,-0.6374,-0.6358,-0.6348,-0.6356,-0.6336,-0.6333,-0.6327,-0.632,-0.632,-0.6321,-0.6321,-0.6336,-0.6342,0,0,0,-0.6378,-0.638,-0.6378,-0.6374,-0.6365,-0.6348,-0.6343,-0.6335,-0.633,-0.632,-0.632,-0.6321,-0.6321,-0.6335,-0.6341,-0.6347,0,0,0,-0.6387,-0.6391,-0.6378,-0.6381,-0.6365,-0.6357,-0.6343,-0.6336,-0.633,-0.632,-0.6321,-0.6321,-0.6335,-0.6341,-0.6346,-0.6353,-0.6357,0,0,-0.6397,-0.6392,-0.6393,-0.6381,-0.6378,-0.636,-0.6359,-0.6344,-0.6334,-0.6326,-0.6326,-0.6336,-0.6341,-0.6346,-0.6372,-0.6375,0,0,0,-0.6399,-0.64,-0.6397,-0.6392,-0.6381,-0.6372,-0.6357,-0.6352,-0.6345,-0.6332,-0.6339,-0.6341,-0.6344,-0.6347,-0.635,-0.6352,-0.6323,-0.6323,-0.6323,-0.6426,-0.6415,-0.6416,-0.6402,-0.6397,-0.6382,-0.6377,-0.6367,-0.6356,-0.6358,-0.6356,-0.6373,-0.6377,-0.6379,-0.6381,-0.6358,-0.6358,-0.6358,-0.6358,-0.644,-0.644,-0.6427,-0.6423,-0.6412,-0.6408,-0.6395,-0.6387,-0.6383,-0.6373,-0.6375,-0.6366,-0.6382,-0.6384,-0.6359,-0.6359,-0.6359,-0.6359,-0.6359,-0.6457,-0.6455,-0.6449,-0.6441,-0.6437,-0.6423,-0.642,-0.6409,-0.6399,-0.6401,-0.6398,-0.6398,-0.6397,-0.64,-0.64,-0.64,-0.64,-0.64,-0.64,-0.6477,-0.647,-0.6469,-0.6459,-0.6455,-0.6449,-0.6435,-0.6431,-0.6424,-0.6416,-0.6416,-0.6406,-0.6386,-0.6381,-0.6401,-0.6401,-0.6401,-0.6401,-0.6401,-0.6497,-0.6491,-0.649,-0.6486,-0.6475,-0.6472,-0.6459,-0.6452,-0.6447,-0.6447,-0.6437,-0.6423,-0.6417,-0.6415,-0.6412,-0.6438,-0.6438,-0.6438,-0.6438,-0.6512,-0.6508,-0.6505,-0.6501,-0.6494,-0.6483,-0.6483,-0.6474,-0.6462,-0.6459,-0.6453,-0.6448,-0.6446,-0.6441,-0.6439,-0.6435,-0.6467,-0.6467,-0.6467,-0.6524,-0.652,-0.6522,-0.6511,-0.6502,-0.6495,-0.6496,-0.6491,-0.6477,-0.6468,-0.6457,-0.6455,-0.6446,-0.6443,-0.6434,-0.643,-0.6423,0,0]},{"header":{"parameterUnit":"m.s-1","parameterCategory":1,"la1":30.2992,"la2":30.254,"lo1":-89.0895,"lo2":-89.0443,"dy":0.0025,"dx":0.0025,"nx":19,"ny":19,"refTime":"2026-04-12T03:00:00:Z","depth":0,"parameterNumber":3,"parameterNumberName":"V-component_of_WINDS"},"data":[0,0,0,2.5188,2.5188,2.5156,2.5156,2.5119,2.5119,0,0,0,0,0,0,0,0,0,0,0,2.5201,2.5201,2.5188,2.5188,2.5156,2.5156,2.5119,2.5119,0,0,0,0,0,0,0,0,0,0,0,2.5201,2.5201,2.5201,2.5188,2.5156,2.5156,2.5119,2.5141,0,0,0,0,0,0,0,0,0,0,2.5171,2.5186,2.5201,2.5201,2.5187,2.5156,2.5156,2.5142,2.514,2.5135,0,2.5133,0,2.5125,2.5117,2.5116,0,0,0,2.5185,2.5188,2.5177,2.5201,2.5187,2.5156,2.517,2.5141,2.5138,2.5132,2.5132,2.5131,2.5125,2.5116,2.5116,2.5102,2.5102,0,0,2.5187,2.5196,2.5179,2.5176,2.5182,2.5171,2.5169,2.5139,2.514,2.5132,2.513,2.5124,2.5116,2.5116,2.5102,2.5102,0,0,0,2.5194,2.5198,2.5187,2.5177,2.5172,2.517,2.5167,2.5141,2.5137,2.5129,2.5124,2.5116,2.5116,2.5102,2.5102,2.5116,0,0,0,2.5194,2.5202,2.5188,2.5194,2.5172,2.5156,2.517,2.5139,2.5135,2.5124,2.5116,2.5115,2.5102,2.5102,2.5115,2.512,0,0,0,2.5202,2.5203,2.52,2.5195,2.5182,2.5156,2.515,2.5138,2.5132,2.5116,2.5115,2.5101,2.5102,2.5115,2.5119,2.512,0,0,0,2.5212,2.5211,2.52,2.5196,2.5182,2.5166,2.515,2.5137,2.5126,2.5116,2.5102,2.5102,2.5114,2.5119,2.5119,2.5122,2.5124,0,0,2.5216,2.5212,2.5209,2.5198,2.5187,2.517,2.516,2.5139,2.5127,2.5111,2.511,2.5115,2.5119,2.512,2.5133,2.5135,0,0,0,2.5214,2.5212,2.5207,2.5197,2.5183,2.517,2.515,2.5142,2.5128,2.5121,2.5115,2.5117,2.5117,2.5118,2.5119,2.5119,2.5103,2.5103,2.5103,2.5232,2.522,2.5215,2.5198,2.5189,2.517,2.5161,2.5147,2.5135,2.5134,2.5129,2.5139,2.514,2.5141,2.5141,2.5129,2.5129,2.5129,2.5129,2.5237,2.5232,2.5219,2.5209,2.5196,2.5187,2.5168,2.516,2.5149,2.5141,2.514,2.5133,2.5144,2.5142,2.513,2.513,2.513,2.513,2.513,2.5248,2.5243,2.5236,2.5222,2.5212,2.5196,2.5187,2.5174,2.5162,2.5161,2.5154,2.5154,2.5152,2.5159,2.5159,2.5159,2.5159,2.5159,2.5159,2.5262,2.5253,2.5247,2.5233,2.5226,2.5215,2.5197,2.5189,2.5177,2.5168,2.5168,2.5157,2.5148,2.5145,2.5159,2.5159,2.5159,2.5159,2.5159,2.527,2.5267,2.5259,2.5252,2.5235,2.5227,2.5212,2.5197,2.5189,2.5185,2.5174,2.517,2.5164,2.5162,2.516,2.5177,2.5177,2.5177,2.5177,2.5279,2.5276,2.5265,2.5256,2.5244,2.5231,2.5221,2.5207,2.5191,2.5186,2.5181,2.5178,2.5177,2.5171,2.517,2.5168,2.5186,2.5186,2.5186,2.5284,2.5279,2.5274,2.5261,2.5247,2.5235,2.5226,2.5214,2.5196,2.5187,2.5181,2.518,2.5175,2.5173,2.5163,2.5161,2.5157,0,0]}]]